EW6246 Weather Reports


Display with metric or nautical units.
time (UTC)temp
F
wind
direction
speed
MPH
gust
MPH
rain 1hr
in
rain 24hr
in
rain mn
in
humidity
%
barometer
mb
20260507193349 79 93 4.0 7.0 0.00 0.01 0.01 81 1017.1
20260507192845 78 325 1.0 1.0 0.00 0.01 0.01 82 1017.1
20260507192342 77 231 1.0 1.0 0.00 0.01 0.01 83 1017.2
20260507191838 78 294 1.0 1.0 0.00 0.01 0.01 82 1017.1
20260507191334 79 286 2.0 3.0 0.00 0.01 0.01 79 1017.2
20260507190831 79 273 2.0 5.0 0.00 0.01 0.01 80 1017.6
20260507190330 78 230 5.0 8.0 0.00 0.01 0.01 81 1017.2
20260507185828 79 56 3.0 5.0 0.00 0.01 0.01 81 1017.7
20260507185325 79 271 1.0 2.0 0.00 0.01 0.01 79 1017.5
20260507184822 81 13 1.0 2.0 0.00 0.01 0.01 78 1017.2
20260507184320 79 23 2.0 2.0 0.00 0.01 0.01 79 1017.2
20260507183816 78 14 1.0 1.0 0.00 0.01 0.01 80 1017.6
20260507183314 79 280 4.0 6.0 0.00 0.01 0.01 79 1017.5
20260507182811 80 171 2.0 2.0 0.00 0.01 0.01 77 1017.7
20260507182307 79 311 2.0 2.0 0.00 0.01 0.01 79 1017.6
20260507181803 77 302 3.0 3.0 0.00 0.01 0.01 84 1017.4
20260507181259 75 265 3.0 6.0 0.00 0.01 0.01 88 1017.6
20260507180756 75 259 3.0 7.0 0.00 0.01 0.01 89 1017.7
20260507180253 75 258 2.0 2.0 0.05 0.01 0.01 90 1017.6
20260507175748 75 258 2.0 2.0 0.05 0.01 0.01 89 1017.9
20260507175245 76 258 3.0 5.0 0.00 0.00 0.00 88 1018.0
20260507174743 76 258 2.0 2.0 0.00 0.00 0.00 85 1018.0
20260507174241 77 258 1.0 2.0 0.00 0.00 0.00 82 1018.0
20260507173738 77 258 1.0 2.0 0.00 0.00 0.00 81 1018.1
20260507173235 78 258 2.0 3.0 0.00 0.00 0.00 81 1017.7
20260507172731 79 258 3.0 5.0 0.00 0.00 0.00 80 1018.2
20260507172229 79 258 2.0 2.0 0.00 0.00 0.00 80 1018.1
20260507171728 82 258 2.0 2.0 0.00 0.00 0.00 75 1018.6
20260507171226 84 258 3.0 5.0 0.00 0.00 0.00 74 1018.0
20260507170723 84 258 2.0 2.0 0.00 0.00 0.00 70 1018.1
20260507170220 83 258 2.0 2.0 0.00 0.00 0.00 70 1018.1
20260507165715 84 280 1.0 2.0 0.00 0.00 0.00 71 1018.4
20260507165212 84 268 2.0 3.0 0.00 0.00 0.00 72 1018.6
20260507164708 83 291 4.0 5.0 0.00 0.00 0.00 74 1018.5
20260507164205 83 275 2.0 3.0 0.00 0.00 0.00 71 1018.4
20260507163702 85 312 3.0 3.0 0.00 0.00 0.00 70 1018.7
20260507163200 83 350 0.0 1.0 0.00 0.00 0.00 71 1018.7
20260507162655 83 298 2.0 2.0 0.00 0.00 0.00 74 1019.0
20260507162146 82 289 0.0 0.0 0.00 0.00 0.00 75 1019.1
20260507161642 79 258 2.0 2.0 0.00 0.00 0.00 79 1018.9
20260507161139 80 258 3.0 6.0 0.00 0.00 0.00 77 1019.1
20260507160636 82 349 5.0 8.0 0.00 0.00 0.00 76 1019.3
20260507160132 84 342 1.0 1.0 0.00 0.00 0.00 72 1019.1
20260507155627 83 293 1.0 2.0 0.00 0.00 0.00 72 1019.1
20260507155119 81 290 1.0 1.0 0.00 0.00 0.00 73 1019.3
20260507154615 81 55 5.0 7.0 0.00 0.00 0.00 72 1019.5
20260507154113 80 258 4.0 6.0 0.00 0.00 0.00 77 1019.4
20260507153609 82 299 2.0 2.0 0.00 0.00 0.00 74 1019.3
20260507153106 82 259 0.0 0.0 0.00 0.00 0.00 69 1019.4
20260507152602 82 289 3.0 3.0 0.00 0.00 0.00 68 1019.4
20260507152058 85 307 1.0 1.0 0.00 0.00 0.00 64 1019.4
20260507151554 84 310 1.0 1.0 0.00 0.00 0.00 65 1019.4
20260507151051 83 298 1.0 2.0 0.00 0.00 0.00 66 1019.4
20260507150543 83 295 0.0 1.0 0.00 0.00 0.00 67 1019.4
20260507150039 84 296 1.0 1.0 0.00 0.00 0.00 66 1019.5
20260507145534 83 248 2.0 3.0 0.00 0.00 0.00 70 1019.4
20260507145032 81 321 0.0 1.0 0.00 0.00 0.00 71 1019.6
20260507144528 79 283 1.0 1.0 0.00 0.00 0.00 76 1019.5
20260507144026 79 284 0.0 0.0 0.00 0.00 0.00 72 1019.8
20260507143523 79 268 1.0 2.0 0.00 0.00 0.00 70 1019.9
20260507143021 79 263 1.0 1.0 0.00 0.00 0.00 71 1019.9
20260507142515 79 288 0.0 0.0 0.00 0.00 0.00 73 1019.6
20260507142013 78 273 1.0 1.0 0.00 0.00 0.00 74 1019.5
20260507141509 78 244 1.0 1.0 0.00 0.00 0.00 76 1019.4
20260507141007 79 284 1.0 1.0 0.00 0.00 0.00 75 1019.8
20260507140503 79 285 0.0 1.0 0.00 0.00 0.00 73 1020.0
20260507140000 80 270 2.0 2.0 0.00 0.00 0.00 71 1019.9
20260507135457 79 270 1.0 1.0 0.00 0.00 0.00 74 1019.8
20260507134954 78 297 0.0 0.0 0.00 0.00 0.00 76 1019.9
20260507134450 78 290 1.0 1.0 0.00 0.00 0.00 75 1019.9
20260507133946 79 261 1.0 1.0 0.00 0.00 0.00 74 1019.8
20260507133443 78 326 0.0 0.0 0.00 0.00 0.00 76 1019.7
20260507132941 78 326 1.0 1.0 0.00 0.00 0.00 76 1019.7
20260507132437 79 6 1.0 1.0 0.00 0.00 0.00 75 1019.8
20260507131933 78 307 0.0 1.0 0.00 0.00 0.00 75 1019.7
20260507131431 78 263 1.0 2.0 0.00 0.00 0.00 77 1019.7
20260507130928 79 300 1.0 1.0 0.00 0.00 0.00 74 1019.5
20260507130425 79 296 1.0 1.0 0.00 0.00 0.00 76 1019.5
20260507125924 78 291 0.0 0.0 0.00 0.00 0.00 76 1019.6
20260507125421 78 270 0.0 1.0 0.00 0.00 0.00 77 1019.5
20260507124918 78 273 2.0 2.0 0.00 0.00 0.00 78 1019.5
20260507124414 77 279 0.0 0.0 0.00 0.00 0.00 79 1019.4
20260507123913 78 262 1.0 1.0 0.00 0.00 0.00 77 1019.3
20260507123410 78 288 1.0 1.0 0.00 0.00 0.00 79 1019.4
20260507122906 79 251 1.0 1.0 0.00 0.00 0.00 75 1019.2
20260507122401 78 285 0.0 0.0 0.00 0.00 0.00 74 1019.2
20260507121858 78 296 0.0 0.0 0.00 0.00 0.00 75 1019.2
20260507121353 76 287 1.0 1.0 0.00 0.00 0.00 78 1019.0
20260507120850 75 290 0.0 0.0 0.00 0.00 0.00 81 1018.9
20260507120346 74 260 1.0 1.0 0.00 0.00 0.00 84 1018.7
20260507115843 74 287 2.0 2.0 0.00 0.00 0.00 83 1018.7
20260507115338 73 290 2.0 2.0 0.00 0.00 0.00 86 1018.7
20260507114834 73 266 2.0 2.0 0.00 0.00 0.00 87 1018.6
20260507114332 75 281 1.0 2.0 0.00 0.00 0.00 82 1018.5
20260507113829 77 310 0.0 0.0 0.00 0.00 0.00 77 1018.6
20260507113326 76 310 0.0 0.0 0.00 0.00 0.00 80 1018.9
20260507112824 76 310 0.0 1.0 0.00 0.00 0.00 79 1018.5
20260507112320 77 310 0.0 0.0 0.00 0.00 0.00 76 1018.4
20260507111818 76 310 0.0 0.0 0.00 0.00 0.00 80 1018.5
20260507111314 74 310 0.0 0.0 0.00 0.00 0.00 84 1018.5
20260507110811 73 310 0.0 0.0 0.00 0.00 0.00 83 1018.5
20260507110307 69 310 0.0 0.0 0.00 0.00 0.00 90 1018.6
20260507105804 70 310 0.0 0.0 0.00 0.00 0.00 89 1018.7
20260507105300 69 310 0.0 1.0 0.00 0.00 0.00 89 1018.5
20260507104757 67 322 1.0 1.0 0.00 0.00 0.00 92 1018.6
20260507104253 66 322 0.0 0.0 0.00 0.00 0.00 94 1018.4
20260507103749 66 323 0.0 0.0 0.00 0.00 0.00 94 1018.6
20260507103246 66 327 0.0 1.0 0.00 0.00 0.00 94 1018.5
20260507102742 65 327 0.0 0.0 0.00 0.00 0.00 95 1018.4
20260507102234 65 328 0.0 0.0 0.00 0.00 0.00 95 1018.4
20260507101730 65 328 1.0 1.0 0.00 0.00 0.00 96 1018.3
20260507101225 65 321 0.0 0.0 0.00 0.00 0.00 95 1018.3
20260507100722 65 327 1.0 1.0 0.00 0.00 0.00 95 1018.2
20260507100221 65 321 0.0 0.0 0.00 0.00 0.00 95 1018.0
20260507095719 65 321 0.0 1.0 0.00 0.00 0.00 95 1018.0
20260507095215 65 319 0.0 0.0 0.00 0.00 0.00 96 1018.1
20260507094712 65 317 0.0 0.0 0.00 0.00 0.00 96 1017.9
20260507094209 65 317 0.0 0.0 0.00 0.00 0.00 96 1017.8
20260507093705 65 317 0.0 0.0 0.00 0.00 0.00 96 1018.0
20260507093204 65 317 0.0 0.0 0.00 0.00 0.00 96 1018.2
20260507092700 65 318 0.0 0.0 0.00 0.00 0.00 95 1018.1
20260507092151 65 325 0.0 0.0 0.00 0.00 0.00 95 1017.9
20260507091648 65 316 1.0 1.0 0.00 0.00 0.00 95 1018.0
20260507091144 65 317 0.0 1.0 0.00 0.00 0.00 95 1018.0
20260507090640 65 317 0.0 1.0 0.00 0.00 0.00 95 1018.0
20260507090137 65 317 0.0 1.0 0.00 0.00 0.00 95 1018.1
20260507085634 65 311 0.0 0.0 0.00 0.00 0.00 94 1018.3
20260507085131 65 311 0.0 0.0 0.00 0.00 0.00 95 1018.1
20260507084628 65 312 0.0 0.0 0.00 0.00 0.00 94 1018.0
20260507084124 65 316 0.0 0.0 0.00 0.00 0.00 95 1018.2
20260507083621 65 315 0.0 0.0 0.00 0.00 0.00 95 1018.2
20260507083118 65 315 0.0 0.0 0.00 0.00 0.00 95 1018.3
20260507082614 64 314 0.0 0.0 0.00 0.00 0.00 94 1018.2
20260507082111 64 315 0.0 0.0 0.00 0.00 0.00 94 1018.3
20260507081607 64 317 0.0 0.0 0.00 0.00 0.00 94 1018.2
20260507081104 64 318 0.0 1.0 0.00 0.00 0.00 94 1018.0
20260507080600 64 313 0.0 0.0 0.00 0.00 0.00 94 1018.2
20260507080056 64 311 0.0 1.0 0.00 0.00 0.00 94 1018.1
20260507075551 64 310 0.0 0.0 0.00 0.00 0.00 94 1018.0
20260507075048 64 318 1.0 1.0 0.00 0.00 0.00 94 1018.1
20260507074545 64 304 0.0 0.0 0.00 0.00 0.00 94 1018.1
20260507074043 64 296 0.0 0.0 0.00 0.00 0.00 95 1018.2
20260507073539 64 299 0.0 0.0 0.00 0.00 0.00 94 1018.2
20260507073036 64 294 0.0 0.0 0.00 0.00 0.00 94 1018.1
20260507072533 64 299 0.0 0.0 0.00 0.00 0.00 94 1018.1
20260507072030 64 319 0.0 0.0 0.00 0.00 0.00 94 1018.3
20260507071528 64 308 0.0 0.0 0.00 0.00 0.00 94 1018.4
20260507071024 64 287 0.0 0.0 0.00 0.00 0.00 94 1018.2
20260507070521 64 321 0.0 0.0 0.00 0.00 0.00 94 1018.3
20260507070018 64 306 0.0 0.0 0.00 0.00 0.00 94 1018.4
20260507065514 64 312 0.0 0.0 0.00 0.00 0.00 94 1018.5
20260507065012 64 306 0.0 0.0 0.00 0.00 0.00 94 1018.4
20260507064510 64 308 0.0 0.0 0.00 0.00 0.00 95 1018.5
20260507064008 64 302 0.0 0.0 0.00 0.00 0.00 95 1018.6
20260507063504 64 315 0.0 0.0 0.00 0.00 0.00 95 1018.9
20260507063002 64 301 0.0 0.0 0.00 0.00 0.00 95 1018.6
20260507062459 64 304 0.0 0.0 0.00 0.00 0.00 94 1018.7
20260507061956 64 318 0.0 0.0 0.00 0.00 0.00 94 1018.7
20260507061454 64 298 0.0 0.0 0.00 0.00 0.00 94 1019.0
20260507060952 65 301 0.0 0.0 0.00 0.00 0.00 94 1019.1
20260507060449 65 311 0.0 1.0 0.00 0.00 0.00 94 1018.9
20260507055945 65 298 0.0 0.0 0.00 0.00 0.00 94 1019.2
20260507055440 65 319 1.0 1.0 0.00 0.00 0.00 94 1019.2
20260507054937 65 288 0.0 0.0 0.00 0.00 0.00 93 1019.3
20260507054433 65 301 0.0 0.0 0.00 0.00 0.00 93 1019.2
20260507053931 65 349 0.0 0.0 0.00 0.00 0.00 94 1019.2
20260507053428 64 302 0.0 0.0 0.00 0.00 0.00 94 1019.5
20260507052927 64 320 0.0 0.0 0.00 0.00 0.00 95 1019.4
20260507052424 64 298 0.0 0.0 0.00 0.00 0.00 95 1019.6
20260507051921 64 311 0.0 0.0 0.00 0.00 0.00 95 1019.7
20260507051418 64 291 0.0 0.0 0.00 0.00 0.00 94 1019.8
20260507050915 65 302 0.0 0.0 0.00 0.00 0.00 94 1019.5
20260507050411 65 320 0.0 0.0 0.00 0.00 0.00 94 1019.8
20260507045908 65 311 0.0 0.0 0.00 0.00 0.00 94 1019.9
20260507045404 65 300 0.0 0.0 0.00 0.00 0.00 94 1019.9
20260507044857 65 308 0.0 1.0 0.00 0.00 0.00 94 1020.0
20260507044353 65 312 1.0 1.0 0.00 0.00 0.00 94 1020.2
20260507043849 65 306 0.0 0.0 0.00 0.00 0.00 94 1020.1
20260507043346 65 313 0.0 0.0 0.00 0.00 0.00 94 1020.2
20260507042842 65 311 0.0 0.0 0.00 0.00 0.00 93 1020.4
20260507042338 65 308 0.0 0.0 0.00 0.00 0.00 94 1020.6
20260507041835 65 309 0.0 0.0 0.00 0.00 0.00 94 1020.5
20260507041332 65 309 0.0 0.0 0.00 0.00 0.00 94 1020.3
20260507040829 65 298 0.0 0.0 0.00 0.00 0.00 94 1020.6
20260507040325 65 314 0.0 0.0 0.00 0.00 0.00 94 1020.4
20260507035821 65 306 0.0 0.0 0.00 0.00 0.00 94 1020.6
20260507035316 65 306 0.0 0.0 0.00 0.00 0.00 94 1020.6
20260507034814 65 309 0.0 0.0 0.00 0.00 0.00 94 1020.5
20260507034311 65 298 0.0 0.0 0.00 0.00 0.00 94 1020.7
20260507033809 65 303 0.0 0.0 0.00 0.00 0.00 94 1020.8
20260507033307 65 306 0.0 0.0 0.00 0.00 0.00 95 1020.7
20260507032803 65 304 0.0 0.0 0.00 0.00 0.00 94 1021.0
20260507032259 65 298 0.0 0.0 0.00 0.00 0.00 94 1020.7
20260507031756 66 299 0.0 0.0 0.00 0.00 0.00 94 1020.8
20260507031253 66 297 0.0 0.0 0.00 0.00 0.00 94 1021.0
20260507030749 66 300 0.0 0.0 0.00 0.00 0.00 94 1021.0
20260507030247 66 302 0.0 0.0 0.00 0.00 0.00 94 1020.8
20260507025744 66 304 0.0 0.0 0.00 0.00 0.00 94 1020.8
20260507025241 66 307 0.0 0.0 0.00 0.00 0.00 94 1021.0
20260507024739 66 302 0.0 0.0 0.00 0.00 0.00 94 1021.0
20260507024236 66 304 0.0 0.0 0.00 0.00 0.00 94 1020.8
20260507023732 66 304 0.0 0.0 0.00 0.00 0.00 94 1021.0
20260507023229 66 308 0.0 0.0 0.00 0.00 0.00 94 1021.0
20260507022726 66 302 0.0 0.0 0.00 0.00 0.00 94 1020.7
20260507022222 66 314 0.0 0.0 0.00 0.00 0.00 94 1020.7
20260507021719 66 302 0.0 0.0 0.00 0.00 0.00 94 1020.6
20260507021214 66 314 0.0 0.0 0.00 0.00 0.00 94 1020.4
20260507020713 67 302 0.0 0.0 0.00 0.00 0.00 94 1020.5
20260507020208 67 304 0.0 0.0 0.00 0.00 0.00 94 1020.4
20260507015707 67 305 0.0 0.0 0.00 0.00 0.00 94 1020.3
20260507015204 67 296 0.0 0.0 0.00 0.00 0.00 94 1020.5
20260507014700 67 302 0.0 0.0 0.00 0.00 0.00 93 1020.4
20260507014156 67 300 0.0 0.0 0.00 0.00 0.00 93 1020.2
20260507013653 68 297 0.0 0.0 0.00 0.00 0.00 93 1020.2
20260507013150 68 302 0.0 0.0 0.00 0.00 0.00 92 1020.4
20260507012648 68 302 0.0 0.0 0.00 0.00 0.00 92 1020.3
20260507012143 68 309 0.0 0.0 0.00 0.00 0.00 92 1020.2
20260507011641 68 309 0.0 0.0 0.00 0.00 0.00 92 1020.1
20260507011137 68 306 0.0 0.0 0.00 0.00 0.00 92 1019.9
20260507010632 68 302 0.0 0.0 0.00 0.00 0.00 92 1020.1
20260507010128 68 299 0.0 0.0 0.00 0.00 0.00 93 1019.9
20260507005626 68 304 0.0 1.0 0.00 0.00 0.00 92 1020.1
20260507005122 68 304 0.0 1.0 0.00 0.00 0.00 92 1019.8
20260507004619 68 298 0.0 0.0 0.00 0.00 0.00 93 1019.7
20260507004116 68 313 1.0 1.0 0.00 0.00 0.00 93 1019.9
20260507003612 69 297 0.0 0.0 0.00 0.00 0.00 92 1019.7
20260507003107 69 301 1.0 1.0 0.00 0.00 0.00 92 1019.8
20260507002604 69 312 0.0 0.0 0.00 0.00 0.00 91 1019.9
20260507002100 70 297 0.0 0.0 0.00 0.00 0.00 91 1019.8
20260507001557 70 295 0.0 0.0 0.00 0.00 0.00 90 1019.6
20260507001054 71 294 0.0 0.0 0.00 0.00 0.00 88 1019.5
20260507000550 71 292 0.0 0.0 0.00 0.00 0.00 87 1019.6
20260507000046 72 254 2.0 2.0 0.00 0.00 0.00 84 1019.5
20260506235544 72 277 2.0 3.0 0.00 0.00 0.00 84 1019.3
20260506235039 72 297 1.0 1.0 0.00 0.00 0.00 84 1019.3
20260506234536 72 304 0.0 1.0 0.00 0.00 0.00 85 1019.2
20260506234033 72 61 1.0 2.0 0.00 0.00 0.00 86 1019.3
20260506233530 72 318 0.0 1.0 0.00 0.00 0.00 85 1019.2
20260506233021 72 312 3.0 6.0 0.00 0.00 0.00 84 1019.1
20260506232517 72 246 2.0 2.0 0.00 0.00 0.00 85 1019.3
20260506232013 72 279 1.0 2.0 0.00 0.00 0.00 85 1019.1
20260506231511 73 327 2.0 2.0 0.00 0.00 0.00 84 1019.0
20260506231008 73 268 1.0 2.0 0.00 0.00 0.00 84 1018.9
20260506230504 73 264 1.0 1.0 0.00 0.00 0.00 84 1018.5
20260506225956 73 288 2.0 3.0 0.00 0.00 0.00 85 1018.5
20260506225453 73 281 1.0 1.0 0.00 0.00 0.00 86 1018.5
20260506224949 73 278 2.0 3.0 0.00 0.00 0.00 84 1018.6
20260506224446 73 260 1.0 1.0 0.00 0.00 0.00 85 1018.7
20260506223943 74 258 1.0 1.0 0.00 0.00 0.00 86 1018.4
20260506223439 74 278 2.0 3.0 0.00 0.00 0.00 86 1018.5
20260506222936 74 261 3.0 3.0 0.00 0.00 0.00 85 1018.6
20260506222432 75 270 1.0 2.0 0.00 0.00 0.00 86 1018.5
20260506221929 75 258 1.0 2.0 0.00 0.00 0.00 83 1018.5
20260506221426 75 258 3.0 6.0 0.00 0.00 0.00 83 1018.4
20260506220924 75 258 2.0 2.0 0.00 0.00 0.00 85 1018.4
20260506220419 76 258 3.0 5.0 0.00 0.00 0.00 85 1018.2
20260506215916 76 258 1.0 1.0 0.00 0.00 0.00 84 1018.4
20260506215412 76 258 3.0 5.0 0.00 0.00 0.00 83 1018.5
20260506214908 77 258 1.0 2.0 0.00 0.00 0.00 83 1018.4
20260506214405 77 258 1.0 2.0 0.00 0.00 0.00 81 1018.3
20260506213903 78 258 3.0 3.0 0.00 0.00 0.00 80 1018.5
20260506213400 78 258 2.0 2.0 0.00 0.00 0.00 78 1018.2
20260506212858 79 258 2.0 2.0 0.00 0.00 0.00 78 1018.3
20260506212353 79 258 1.0 2.0 0.00 0.00 0.00 76 1018.2
20260506211848 78 258 3.0 5.0 0.00 0.00 0.00 77 1018.2
20260506211345 79 258 1.0 2.0 0.00 0.00 0.00 77 1018.1
20260506210842 78 258 1.0 2.0 0.00 0.00 0.00 77 1018.2
20260506210339 80 258 4.0 5.0 0.00 0.00 0.00 75 1018.4
20260506205836 79 258 4.0 5.0 0.00 0.00 0.00 76 1018.3
20260506205332 80 258 2.0 2.0 0.00 0.00 0.00 74 1018.2
20260506204828 81 258 1.0 2.0 0.00 0.00 0.00 72 1018.2
20260506204326 81 258 1.0 1.0 0.00 0.00 0.00 72 1018.1
20260506203824 81 258 4.0 5.0 0.00 0.00 0.00 72 1018.1
20260506203321 82 258 1.0 1.0 0.00 0.00 0.00 72 1018.1
20260506202817 81 258 1.0 2.0 0.00 0.00 0.00 71 1018.0
20260506202315 81 258 3.0 3.0 0.00 0.00 0.00 71 1017.9
20260506201811 81 258 1.0 1.0 0.00 0.00 0.00 72 1018.0
20260506201309 80 258 4.0 6.0 0.00 0.00 0.00 71 1018.1
20260506200805 81 263 3.0 5.0 0.00 0.00 0.00 73 1018.0
20260506200301 80 258 2.0 2.0 0.00 0.00 0.00 72 1018.2
20260506195758 81 272 1.0 1.0 0.00 0.00 0.00 74 1018.3
20260506195255 82 262 3.0 5.0 0.00 0.00 0.00 72 1018.1
20260506194752 81 258 3.0 5.0 0.00 0.00 0.00 73 1018.4
20260506194248 80 258 2.0 2.0 0.00 0.00 0.00 74 1018.5
20260506193746 80 258 1.0 1.0 0.00 0.00 0.00 75 1018.3